Location: Unnamed
(48.6007°N, 2.4808°E)
Time: 16:02:47
(UTC+01:00)

UWE-3 - Visible Passes

Search period start: 20 March 2023 00:00
Search period end: 30 March 2023 01:00
Orbit: 580 x 670 km, 97.7° (Epoch: 20 March)

Date Brightness Start Highest point End Pass type
(mag) Time Alt. Az. Time Alt. Az. Time Alt. Az.
20 Mar ? 03:37:59 10° NNE 03:41:25 44° NE 03:41:25 44° NE visible
20 Mar ? 05:15:00 10° NNW 05:18:21 20° WNW 05:18:41 20° WNW visible
21 Mar ? 03:56:46 10° NNE 04:00:36 61° NNE 04:00:36 61° NNE visible
21 Mar ? 05:34:30 10° NNW 05:36:58 14° WNW 05:37:53 14° WNW visible
22 Mar ? 02:40:39 10° NE 02:42:29 15° ENE 02:42:29 15° ENE visible
22 Mar ? 04:15:40 10° N 04:19:46 60° NW 04:19:46 60° NW visible
23 Mar ? 02:58:51 10° NE 03:01:39 23° ENE 03:01:39 23° ENE visible
23 Mar ? 04:34:39 10° N 04:38:56 42° WNW 04:38:56 42° WNW visible
24 Mar ? 03:17:20 10° NNE 03:20:48 33° ENE 03:20:48 33° ENE visible
24 Mar ? 04:53:44 10° N 04:57:40 29° WNW 04:58:05 29° WNW visible
25 Mar ? 03:35:58 10° NNE 03:39:56 51° ENE 03:39:56 51° ENE visible
25 Mar ? 05:12:56 10° NNW 05:16:17 21° WNW 05:17:13 19° WNW visible
26 Mar ? 04:54:43 10° NNE 04:59:04 78° NE 04:59:04 78° NE visible
26 Mar ? 06:32:23 10° NNW 06:34:51 15° WNW 06:36:20 13° W visible
27 Mar ? 03:38:39 10° NE 03:40:54 15° E 03:40:54 15° E visible
27 Mar ? 05:13:33 10° N 05:18:04 66° WNW 05:18:10 66° W visible
27 Mar ? 06:52:58 10° NW 06:53:22 10° NW 06:53:45 10° WNW visible
28 Mar ? 03:56:45 10° NE 04:00:00 23° E 04:00:00 23° E visible
28 Mar ? 05:32:28 10° N 05:36:46 44° WNW 05:37:16 42° W visible
29 Mar ? 04:15:09 10° NNE 04:19:05 34° E 04:19:05 34° E visible
29 Mar ? 05:51:29 10° N 05:55:24 30° WNW 05:56:21 27° W visible
